Theta_e
354 355 356 357 357 358 356 356 354 354 356 344 339 345 348 352 350 352 352 350 351 349 350 349 348 349 349 349 349 350 349 350 350 350 350 351 350 350 351 350 349 348 349 347 346 347 346 346 346 347 348 347 347 347 346 347 347 347 347 346 345 344 344 343 343 343 344 344 343 343 342 343 343 343 343 343 343 344 345 346 347 348 347 347 346 346 346 345 347 347 345 343 340 339 337 336 336
354 356 358 358 358 357 354 355 354 350 348 339 342 348 348 353 351 351 350 349 350 348 348 348 348 348 349 349 349 350 351 352 352 353 352 350 350 350 350 349 349 347 348 346 345 346 346 346 346 347 348 347 346 346 346 347 348 347 346 346 346 345 345 344 343 343 344 344 344 343 343 343 343 342 343 343 343 344 345 346 348 347 347 347 346 347 346 346 347 347 347 344 341 340 338 336 336
355 358 358 358 357 355 353 353 353 345 340 339 344 348 350 352 350 350 349 348 349 348 348 348 347 347 348 349 350 352 350 352 352 352 352 351 351 351 349 349 348 345 346 347 347 347 346 345 345 347 347 346 346 345 345 345 346 347 346 346 346 346 346 345 344 343 344 344 343 343 343 343 343 342 343 344 344 344 345 347 347 346 346 346 346 346 346 346 347 347 346 345 342 341 338 336 337
356 358 358 358 356 354 354 353 355 344 338 340 342 348 351 350 350 349 348 348 349 348 348 349 348 349 350 350 350 351 351 351 352 352 352 351 350 350 349 349 347 345 347 349 349 346 345 344 345 346 346 345 346 345 344 343 344 346 347 346 346 346 346 344 343 343 344 344 344 342 343 343 343 342 342 343 343 344 344 346 347 345 345 345 346 346 347 346 346 347 346 345 342 341 338 336 338
357 359 357 359 357 355 355 354 354 342 339 343 343 350 351 348 348 347 348 349 349 348 348 349 348 349 350 351 351 350 350 351 351 352 351 351 350 349 349 348 346 347 349 350 348 346 345 345 346 345 345 345 345 344 343 343 343 345 347 347 347 346 345 344 343 344 344 344 344 343 342 343 344 343 342 342 342 343 343 345 345 345 345 344 345 346 346 346 346 346 346 345 343 342 339 337 338
358 359 357 358 358 356 356 353 351 344 344 350 347 350 349 348 348 347 349 348 349 350 349 349 348 349 350 350 350 349 349 351 351 351 351 350 350 348 347 347 347 348 349 349 347 345 344 345 347 345 345 345 344 344 344 343 343 344 346 345 346 346 345 345 345 344 344 344 344 344 343 343 344 343 343 342 342 342 343 343 343 343 343 343 344 345 346 345 346 345 345 344 343 342 340 338 338
358 357 355 356 357 357 356 348 347 346 348 352 350 349 348 348 348 347 347 346 348 349 349 349 349 350 351 350 350 350 350 351 352 351 350 350 349 348 347 346 347 348 349 349 347 345 345 346 346 345 345 344 344 345 345 345 344 345 345 345 345 346 346 346 346 345 344 344 344 344 343 343 344 343 343 344 342 342 343 343 343 342 343 343 344 345 345 345 345 345 344 344 343 342 341 340 339
358 357 355 356 356 356 355 346 346 350 350 351 350 350 350 348 348 346 345 347 347 347 348 349 350 350 350 351 351 351 350 350 352 351 350 349 349 349 349 347 348 348 349 349 346 345 345 345 345 344 345 345 344 344 344 345 345 345 345 345 346 346 346 347 347 346 345 343 344 344 343 344 344 344 344 344 344 343 344 344 344 342 343 344 345 345 345 345 344 344 344 344 343 343 343 341 340
357 358 357 357 355 352 350 344 348 352 350 351 351 351 350 349 348 346 345 346 346 348 348 349 350 351 351 351 351 351 350 351 351 350 350 349 349 349 349 349 349 348 349 348 345 344 344 345 344 343 345 345 345 344 343 344 345 345 345 345 345 346 346 347 347 346 346 345 344 343 344 344 345 345 345 344 345 345 345 344 344 344 344 345 344 345 345 345 344 344 343 344 344 344 344 342 340
357 357 356 355 354 348 346 347 347 351 351 351 351 351 351 349 348 347 345 345 346 348 348 349 350 351 352 351 351 351 350 351 350 349 348 348 349 348 348 349 350 350 348 347 343 342 343 344 344 343 344 344 344 343 342 342 343 344 345 345 345 345 345 347 346 345 346 346 345 344 345 344 345 345 345 345 345 345 346 345 344 345 345 345 345 345 345 345 345 344 344 344 344 345 344 342 339
356 357 356 355 350 344 346 349 348 351 352 350 351 351 348 348 347 346 346 345 345 347 348 350 351 351 352 351 351 350 349 350 349 348 347 347 348 348 348 348 349 350 348 346 343 342 344 345 344 343 343 343 343 342 341 342 342 343 343 344 345 346 345 346 345 345 345 346 346 346 346 346 345 346 346 345 345 345 345 345 345 345 344 345 345 345 345 345 345 344 344 344 344 345 343 340 338
355 356 355 353 349 343 347 347 348 352 350 349 351 351 349 348 347 344 345 345 345 347 348 349 349 350 350 351 350 349 349 350 348 347 347 347 348 349 348 347 349 350 348 346 344 342 343 344 344 342 343 344 343 341 341 342 342 343 342 344 346 347 345 345 345 345 345 346 347 347 347 346 346 346 346 346 345 345 345 345 345 345 344 345 345 345 345 345 344 344 344 344 344 343 340 338 337
355 355 353 352 351 348 347 346 350 351 349 350 349 351 350 348 346 344 345 345 346 346 346 348 350 351 350 350 350 349 349 350 349 348 348 348 348 349 348 348 349 349 346 346 345 342 342 342 343 343 343 344 343 341 342 341 342 343 343 344 346 346 345 345 345 346 346 346 347 347 345 345 344 345 345 346 345 345 345 345 345 345 344 344 344 344 344 344 343 343 343 343 341 339 337 337 336
356 357 354 353 353 350 347 347 350 349 347 351 349 351 350 347 348 345 346 344 344 345 346 347 349 350 349 350 351 349 349 349 349 348 347 347 348 349 348 348 350 348 345 344 344 343 342 342 342 343 344 345 344 343 342 341 341 342 343 345 345 345 345 345 345 346 346 346 346 345 344 343 343 344 345 345 344 344 344 345 345 344 343 343 343 342 342 342 342 341 341 339 338 337 336 335 333
355 356 355 353 353 348 347 349 350 347 346 349 350 352 348 348 350 347 345 344 344 345 346 347 347 349 349 350 350 350 349 348 347 347 347 346 348 349 348 348 350 349 345 344 344 343 343 342 342 343 345 345 345 345 344 343 342 341 342 345 345 345 345 344 345 345 345 346 345 344 343 342 342 343 344 344 344 345 345 344 343 342 342 342 342 341 342 341 341 339 338 337 335 335 334 333 331
355 355 354 353 352 348 346 349 347 344 346 349 350 349 348 349 350 348 346 343 344 345 345 345 346 348 349 350 350 349 348 347 347 347 347 347 348 349 349 348 349 349 348 346 345 343 343 343 342 343 344 344 344 345 344 344 344 342 341 343 344 346 346 344 343 344 344 344 344 343 343 343 343 344 345 345 344 345 346 345 343 342 342 341 342 341 341 340 339 338 338 336 333 333 332 331 331
352 354 354 351 350 348 348 349 346 345 347 349 349 349 349 349 348 347 345 343 345 345 345 344 346 348 349 350 350 348 347 347 347 347 347 347 348 349 349 348 348 350 350 349 347 345 344 343 343 343 343 343 344 345 345 344 344 343 343 341 342 345 345 343 343 343 343 343 343 344 344 344 344 345 345 344 344 345 345 344 342 342 341 341 341 340 339 339 339 338 337 334 332 332 331 331 330
352 353 351 348 350 351 351 354 351 348 348 348 350 349 349 348 347 346 345 344 345 345 346 347 347 349 348 348 348 347 346 347 346 347 348 348 348 349 349 349 349 349 350 350 348 347 345 343 344 343 343 344 344 344 344 344 343 343 344 342 340 341 344 343 344 345 344 344 344 345 345 344 345 344 344 345 345 344 343 342 342 341 340 341 340 339 338 338 338 338 335 332 331 330 329 327 326
353 351 350 349 352 355 354 356 355 350 348 350 350 348 348 348 347 347 344 343 344 343 347 349 349 348 348 347 347 347 346 347 347 346 347 348 348 349 350 349 349 349 349 350 349 348 346 344 345 344 342 343 343 342 343 343 343 343 344 344 341 339 341 344 344 345 344 345 346 345 345 345 345 344 343 345 344 342 341 340 341 341 340 339 339 338 338 338 337 335 332 330 330 330 330 327 325
351 352 352 351 354 356 354 353 353 351 347 349 349 347 348 347 348 346 344 344 343 344 347 348 347 347 347 347 346 347 346 347 347 346 346 347 348 349 350 350 349 350 350 349 349 348 347 346 346 344 342 342 341 342 342 342 342 343 342 343 341 339 341 343 343 344 343 344 345 345 345 345 345 344 344 343 342 341 341 340 341 340 339 338 337 336 336 336 334 332 331 330 331 334 338 337 337
351 353 354 352 354 356 353 350 352 353 349 349 348 347 346 348 349 345 346 346 343 344 345 347 347 347 346 346 346 346 347 347 347 346 346 347 347 347 349 349 349 350 350 350 350 350 348 347 346 344 343 343 341 341 343 342 341 342 343 342 341 341 343 342 341 343 342 342 344 345 345 345 344 345 345 344 343 341 341 341 340 338 337 337 335 333 333 333 332 332 332 330 335 342 345 344 346
352 352 354 353 354 357 353 350 353 353 350 349 349 349 348 348 348 345 347 346 345 344 344 347 346 346 346 345 345 346 347 347 347 347 346 346 346 346 347 347 348 349 350 350 350 350 349 347 346 344 343 343 342 341 343 344 342 341 342 343 341 343 345 343 342 342 342 344 346 346 345 344 343 344 344 344 343 340 338 338 337 337 337 335 333 332 333 333 333 332 332 333 340 344 346 346 347
353 353 354 354 354 355 352 350 353 352 351 353 352 351 350 350 348 347 347 347 345 344 345 346 346 346 345 345 346 345 346 347 347 346 346 346 346 346 346 347 348 349 350 350 351 351 350 348 347 345 344 343 343 342 343 344 343 343 343 343 343 344 345 346 345 343 342 346 347 345 344 345 345 345 344 342 340 338 337 336 336 337 336 335 333 333 334 333 333 334 336 340 343 343 345 347 344
355 355 354 354 354 354 352 351 353 351 353 355 353 352 353 352 348 348 348 346 346 344 345 345 345 346 345 345 345 345 345 346 346 346 346 346 345 345 345 346 348 350 351 351 351 351 350 348 347 346 345 343 343 344 344 343 343 343 344 344 344 345 346 346 348 345 342 346 348 345 345 346 347 348 345 343 343 343 344 341 338 339 339 338 338 341 339 335 336 339 342 346 346 344 343 343 343
351 354 354 355 355 355 353 352 352 354 355 354 353 352 353 352 349 349 348 346 345 345 344 345 346 345 344 345 345 345 346 345 346 345 346 346 345 344 345 346 348 350 351 351 351 350 350 349 348 348 346 343 343 344 343 343 344 344 345 345 344 345 347 346 348 347 341 344 347 346 345 345 347 348 346 345 346 347 348 345 343 345 345 344 344 345 342 340 344 345 345 347 346 344 340 337 341
346 352 355 356 356 354 353 354 354 355 354 353 353 355 354 353 350 348 347 348 345 344 345 344 346 345 344 345 345 346 345 346 345 345 346 346 345 344 345 346 348 349 350 351 350 350 350 350 352 351 348 345 344 344 344 344 344 345 345 345 344 345 347 346 347 346 340 344 347 347 347 345 346 346 344 345 346 346 347 345 346 347 345 345 347 344 341 342 346 344 343 346 345 344 339 335 338
346 351 354 355 355 353 354 355 355 356 355 354 354 355 356 354 353 349 346 348 347 345 345 345 345 345 345 345 346 346 345 346 346 345 345 346 344 344 345 346 346 347 348 349 350 350 350 351 353 351 349 348 347 346 347 345 344 345 345 344 344 345 347 346 346 344 342 344 344 345 348 345 344 344 343 345 345 345 345 345 345 346 345 345 346 344 342 343 344 342 341 343 343 343 342 337 336
346 349 352 354 354 355 356 356 356 356 355 355 355 355 355 354 353 351 347 347 347 346 345 345 345 345 345 346 345 346 345 346 346 345 346 345 345 344 346 345 346 346 346 348 349 350 350 350 350 349 348 348 349 350 348 346 345 345 345 344 344 346 347 345 345 343 343 344 339 341 345 344 344 342 342 345 344 344 345 346 346 346 346 345 345 344 344 344 344 342 339 342 342 340 345 341 337
346 349 350 350 352 355 356 356 356 355 356 356 354 353 354 356 354 350 347 347 347 347 346 346 345 344 345 345 345 345 346 346 346 345 346 346 344 345 346 345 345 345 345 347 348 350 349 348 348 348 346 344 348 350 348 347 346 345 346 345 344 346 347 344 345 343 341 343 339 340 344 342 344 344 343 344 344 346 347 347 346 346 346 346 346 345 346 347 345 343 342 344 344 341 346 342 337
347 350 348 347 352 353 354 356 355 354 356 356 353 349 349 355 354 350 347 348 348 348 347 345 346 345 345 345 345 346 347 346 346 346 346 346 344 345 345 345 345 344 346 347 347 348 348 349 349 348 347 344 348 350 348 348 347 347 346 346 345 345 346 345 344 343 342 343 338 339 343 342 344 343 342 344 345 347 349 348 347 347 348 349 349 349 350 350 347 345 344 344 345 342 343 340 337
345 348 346 343 345 348 353 356 353 354 356 355 354 349 349 351 351 351 349 348 349 349 348 347 346 346 345 346 346 346 347 347 347 347 347 347 345 344 345 345 346 345 347 346 346 347 347 349 349 349 349 347 348 349 348 349 349 348 346 346 346 344 346 345 343 344 343 341 337 338 343 343 344 343 341 345 347 348 349 349 349 348 348 350 352 350 351 350 348 345 343 341 342 341 341 339 337
346 343 339 336 338 345 355 354 351 354 354 353 352 348 349 351 349 351 351 349 349 350 349 348 347 346 345 346 346 347 348 347 346 347 347 347 346 346 345 345 346 346 347 347 347 348 348 349 349 349 350 348 348 349 349 349 348 349 348 348 347 347 347 343 342 345 341 338 337 336 342 344 343 342 340 346 349 348 349 348 349 348 348 349 350 349 349 350 349 346 344 340 339 340 340 337 337
349 341 334 333 333 339 352 355 351 355 353 352 352 347 348 352 350 352 352 350 349 350 349 349 347 346 346 346 347 347 347 347 346 347 348 347 347 347 347 346 346 347 348 348 347 348 349 349 349 350 350 350 349 349 349 348 348 350 349 348 347 347 346 342 343 342 334 333 336 335 339 342 342 342 344 349 350 348 349 348 348 348 348 349 348 349 349 348 347 347 345 342 341 339 338 337 336
340 340 334 335 335 334 345 355 353 353 353 350 350 349 349 351 352 351 351 349 349 350 349 349 349 347 346 346 347 347 348 347 347 348 348 347 348 347 348 346 346 347 347 348 348 348 350 350 350 349 350 351 348 347 347 347 349 350 349 349 347 346 344 341 342 340 335 334 337 334 335 339 341 342 347 350 349 348 349 349 348 347 348 350 349 349 348 346 345 346 346 345 343 341 339 338 337
334 336 334 333 335 332 339 351 352 348 351 349 346 349 350 350 352 351 350 349 349 349 348 348 349 347 346 346 346 347 347 348 348 348 348 348 348 347 348 347 346 348 348 349 348 350 351 350 350 349 350 352 347 344 342 346 350 348 349 350 347 345 341 339 341 342 341 340 340 337 333 337 341 342 347 350 349 346 346 348 348 347 348 350 349 347 347 346 345 344 344 345 344 343 340 338 338
336 338 335 330 331 331 337 349 352 348 347 349 346 348 352 350 351 351 349 349 349 348 348 348 348 347 345 346 347 347 347 347 348 349 348 348 348 347 348 348 347 349 349 349 349 350 351 350 351 350 350 352 348 343 341 347 350 347 349 350 347 345 341 339 341 341 343 342 343 341 334 337 341 342 345 348 348 346 344 346 349 348 349 350 349 347 347 348 348 346 345 345 345 343 338 338 339
338 336 333 332 330 330 337 345 348 347 344 346 346 346 351 352 350 350 349 350 350 348 348 348 349 348 346 346 346 347 348 347 348 349 348 348 348 347 349 348 348 349 348 350 350 351 351 351 351 351 351 352 350 345 342 349 351 346 350 351 346 345 343 342 342 341 342 343 345 342 336 339 340 340 342 343 347 347 345 347 348 348 348 348 349 348 347 349 350 349 348 347 345 341 338 339 339
336 333 331 331 330 331 336 339 339 341 341 343 347 346 347 350 348 349 350 351 351 349 349 348 348 348 347 347 346 347 348 347 348 349 348 348 349 348 348 349 349 349 349 351 351 351 351 352 351 352 352 351 351 348 343 348 351 347 350 351 348 346 344 343 343 342 343 344 346 344 339 340 339 338 340 340 345 347 347 349 348 348 348 348 348 347 348 348 348 348 349 347 344 340 341 343 341
332 332 330 327 330 332 334 338 338 340 340 341 345 343 344 348 348 349 350 349 351 350 349 347 346 347 347 347 347 347 348 347 347 348 347 348 348 348 348 349 349 350 351 351 352 352 351 352 352 351 352 352 352 350 346 348 351 349 350 351 349 347 344 344 344 344 344 344 348 346 341 341 339 339 339 339 343 348 350 352 350 348 350 350 348 347 347 348 347 348 349 346 344 341 343 343 343
330 329 328 325 330 329 328 334 342 341 338 337 339 337 343 350 347 348 350 347 349 350 349 348 348 347 347 347 347 346 348 348 347 347 348 347 348 348 348 349 349 351 351 351 353 353 352 353 352 351 352 352 351 351 348 349 351 350 350 349 348 348 345 343 344 344 344 345 348 347 342 343 343 341 341 340 341 346 350 353 349 346 349 350 350 347 347 347 348 349 348 345 345 345 344 344 344
329 330 328 327 330 329 329 336 342 339 337 339 338 330 337 351 348 346 350 347 347 348 348 349 348 348 348 348 348 346 348 349 347 348 348 348 348 348 348 349 350 351 352 351 352 353 353 353 354 352 352 352 352 351 349 349 351 350 349 349 348 348 345 343 344 344 344 345 347 346 343 344 345 343 344 344 343 344 348 352 350 348 349 349 350 350 347 347 348 348 347 347 347 345 344 345 345
326 330 331 329 331 331 334 338 337 330 329 340 338 325 328 345 348 345 348 349 348 348 348 348 348 350 348 348 349 348 348 349 348 348 348 348 347 348 348 349 350 351 351 352 352 353 354 353 355 355 353 353 353 352 349 349 351 349 349 350 349 348 346 343 344 343 344 346 346 345 344 344 344 344 348 348 345 347 348 349 349 350 350 349 351 352 349 348 349 349 348 349 348 345 345 346 347
322 327 331 332 331 331 331 332 328 321 325 338 338 327 323 331 344 348 349 349 349 348 348 347 348 349 349 349 349 349 349 348 347 348 348 347 347 348 349 348 350 350 350 351 351 352 354 353 355 356 354 354 353 352 350 348 348 347 348 351 349 348 347 345 344 343 343 346 345 344 345 343 341 344 350 348 345 348 349 347 348 350 352 353 352 352 351 349 349 349 347 348 348 348 348 347 347
323 329 330 331 331 330 328 327 325 323 327 333 335 332 323 324 338 350 349 348 349 348 349 349 347 349 349 349 349 349 349 347 347 347 347 348 348 348 348 348 349 350 349 351 350 352 353 353 355 356 355 354 352 350 350 347 346 346 347 349 347 349 348 345 345 343 341 346 345 344 345 342 340 343 348 348 348 350 348 346 346 346 349 351 349 349 350 349 347 347 347 348 348 349 350 348 348
326 331 330 330 330 329 330 328 325 326 324 322 326 331 325 323 336 348 349 346 347 347 348 349 348 348 349 349 349 349 348 348 346 347 348 348 347 347 348 348 349 349 350 350 351 351 352 353 355 357 356 355 349 347 348 346 344 345 346 346 345 347 348 345 345 344 341 343 344 344 345 343 341 344 349 350 349 348 346 344 341 341 344 347 346 346 350 349 347 347 348 348 348 349 347 347 347
329 330 329 329 330 329 330 328 325 326 323 319 323 327 324 323 330 339 342 341 343 347 347 347 349 348 348 348 349 349 348 348 347 347 348 347 348 349 348 348 349 349 349 350 350 350 352 354 356 356 357 356 350 347 349 346 343 345 344 345 344 345 347 347 346 345 342 342 344 344 344 345 343 343 349 352 350 347 344 342 339 340 342 343 343 345 347 349 349 348 348 347 346 346 344 346 349
330 329 328 327 330 330 329 329 325 323 321 320 324 326 325 323 327 332 335 338 344 347 346 347 349 348 348 347 348 349 349 349 347 347 348 348 348 348 348 349 348 349 350 349 349 349 351 354 356 356 357 357 352 347 348 347 344 343 344 345 344 344 346 348 347 344 344 343 343 344 344 345 345 345 346 349 351 349 345 342 340 341 341 341 342 343 346 349 349 349 348 347 345 345 346 347 350
329 329 327 324 324 326 324 324 325 322 320 322 325 327 325 322 325 332 334 339 344 346 346 349 348 348 349 348 348 347 348 348 348 347 348 348 348 347 348 348 348 350 349 349 349 349 350 354 355 355 357 358 354 347 345 347 345 345 345 345 345 344 345 347 346 343 343 344 343 344 345 345 346 348 346 346 347 348 345 343 342 342 341 340 341 344 346 347 348 347 346 347 347 347 347 347 349
329 328 324 320 319 321 321 321 322 322 322 325 328 329 326 323 328 334 337 340 343 343 346 349 347 347 348 349 348 347 346 348 347 347 349 349 348 348 349 349 349 349 349 349 349 349 351 353 353 353 355 357 355 352 348 346 344 345 346 345 344 344 344 347 347 343 342 345 343 343 345 345 347 348 347 347 347 346 345 343 342 341 340 340 340 342 343 344 346 346 346 347 350 351 348 347 347
327 324 320 318 318 319 321 322 323 322 322 325 329 329 324 323 331 337 339 341 342 343 344 345 345 346 348 349 347 347 347 347 347 346 347 348 348 348 350 349 348 348 348 348 349 350 351 352 354 353 354 356 355 355 353 349 347 347 347 345 344 345 345 347 348 345 342 345 345 344 344 345 347 349 349 348 348 348 346 342 341 341 340 339 340 340 341 343 345 345 347 348 350 349 348 348 349
326 327 324 320 319 320 321 322 321 320 321 324 329 330 323 322 332 342 341 341 343 343 344 345 345 346 347 347 347 347 347 346 347 347 347 348 349 349 350 349 348 347 349 348 348 350 351 352 354 354 354 353 354 355 354 352 351 349 347 346 344 344 345 346 348 346 344 344 345 345 346 346 347 348 349 349 349 350 349 347 345 344 341 340 341 341 342 344 344 344 346 347 348 348 348 349 351
327 329 324 320 322 323 321 321 320 319 319 321 325 328 329 329 336 340 341 340 342 343 343 345 347 347 346 346 345 345 347 348 347 347 348 350 349 349 350 349 348 348 349 349 349 349 350 352 354 356 354 351 352 355 354 352 351 349 347 346 345 344 344 345 346 346 346 346 346 345 345 347 347 346 346 347 347 349 349 349 349 346 343 341 342 343 343 344 343 343 345 345 344 346 347 348 349
326 324 321 323 328 327 320 318 320 319 317 320 322 323 327 330 334 338 338 339 341 341 341 342 345 344 342 344 343 342 343 347 348 347 348 349 348 350 351 349 348 349 348 347 348 349 351 353 355 356 354 350 351 355 355 354 353 350 347 345 345 345 344 343 343 344 346 346 346 345 344 344 344 344 345 345 345 346 347 347 348 346 342 341 342 344 344 343 344 346 348 346 342 342 345 346 347
325 321 323 328 327 327 323 318 318 318 317 320 320 320 322 323 328 337 340 338 340 341 341 341 343 342 341 342 344 345 344 346 349 349 349 349 349 350 350 349 348 348 348 348 348 350 352 353 354 354 353 350 350 353 355 354 354 352 349 348 347 347 346 345 344 344 346 347 346 345 344 342 342 342 344 344 343 345 346 346 347 346 344 343 344 346 345 342 343 346 348 348 345 343 344 344 346
326 324 329 328 321 321 321 317 317 318 318 319 319 320 321 323 327 334 337 338 339 340 341 341 341 341 343 344 346 347 345 346 350 349 349 350 349 349 350 351 350 348 349 349 348 351 355 354 352 353 352 350 349 352 354 353 353 353 350 350 349 347 348 347 346 345 346 347 347 346 345 343 342 342 342 344 344 345 346 347 347 347 346 346 346 347 347 344 343 344 345 346 346 346 345 343 344
327 328 329 327 323 321 320 320 318 317 317 319 318 321 325 329 334 335 336 340 340 340 341 341 343 344 344 346 346 346 345 347 350 350 350 350 349 349 351 351 351 350 350 350 351 355 358 357 354 355 354 351 350 353 353 352 352 352 351 349 348 347 347 348 348 347 347 347 348 347 346 344 343 343 342 343 344 345 346 347 348 349 347 347 347 348 348 347 346 346 347 346 347 347 346 343 343
324 323 323 324 324 324 323 322 320 318 318 318 320 325 327 332 340 339 338 340 340 340 339 339 345 344 343 344 345 346 346 348 351 350 350 351 350 352 353 353 353 352 352 353 354 358 359 357 355 356 356 354 353 354 353 352 352 352 351 351 350 349 349 349 350 350 350 349 348 347 346 345 344 343 342 342 343 345 346 347 348 348 348 346 347 347 347 348 348 348 348 348 348 346 346 345 345
326 324 323 323 323 322 319 319 320 320 319 318 322 326 327 331 339 340 339 341 340 341 338 340 345 344 343 345 345 345 347 348 350 351 351 351 351 353 354 355 353 353 354 356 356 356 355 354 354 355 355 355 353 353 352 351 351 351 352 352 351 352 351 351 351 352 351 349 348 347 347 346 345 343 344 344 343 344 345 346 347 346 347 346 345 346 346 346 347 347 347 348 347 347 347 347 348
Wind_Speed
4 3 2 2 1 4 5 3 2 2 4 2 3 3 4 7 7 6 8 11 8 10 13 12 13 11 10 11 11 12 10 5 5 4 5 12 18 15 14 15 15 15 15 16 16 15 15 14 14 14 15 15 15 15 15 15 15 15 15 14 13 13 13 13 13 15 15 15 15 16 15 15 16 16 16 15 15 14 14 14 14 13 12 11 11 11 10 9 8 8 7 6 6 6 6 6 6
4 3 3 2 3 3 2 2 2 3 4 2 4 3 5 7 7 9 10 11 10 14 17 17 18 16 16 16 13 12 11 11 15 16 15 19 19 15 15 17 16 17 16 16 16 15 15 15 15 14 14 14 14 15 15 15 15 15 15 14 13 13 13 12 12 13 14 14 14 14 15 16 16 16 16 16 16 15 15 14 13 12 11 10 10 9 9 9 8 7 7 6 6 6 6 5 4
2 4 6 2 3 4 2 1 3 4 2 3 4 4 6 7 9 11 13 15 17 19 18 17 17 14 14 13 10 10 9 13 20 23 22 20 20 18 16 17 18 18 17 16 16 15 15 15 15 14 15 14 14 14 14 14 14 15 15 14 14 13 12 12 12 12 13 13 13 13 14 15 16 16 16 16 16 15 15 14 13 12 11 10 10 9 9 8 8 7 7 6 6 5 5 4 4
3 3 5 3 2 3 1 1 4 4 2 3 4 6 6 8 11 12 15 18 19 17 15 15 13 11 13 12 9 11 11 11 16 21 23 19 21 21 17 19 19 18 17 15 15 15 15 15 15 15 15 15 14 13 13 13 13 14 14 14 14 13 12 12 11 11 12 13 14 13 13 14 15 15 15 15 16 15 14 13 12 12 11 10 10 9 9 8 8 7 7 6 6 5 4 4 3
1 2 4 5 2 1 0 2 4 1 4 3 4 6 7 9 11 12 14 16 17 14 12 13 11 11 14 11 7 9 13 13 14 17 21 20 22 22 19 19 19 18 16 15 15 15 15 14 14 15 15 16 14 13 13 13 13 13 14 14 14 13 12 12 11 11 11 11 13 14 13 13 13 13 14 14 14 13 13 12 12 11 10 10 9 9 8 8 7 7 6 6 5 4 4 4 4
2 3 3 6 6 2 2 3 2 4 5 4 5 6 8 9 10 13 14 14 16 17 14 13 14 14 13 12 11 12 14 15 16 17 20 24 23 22 20 18 18 18 16 15 15 14 15 15 14 14 15 15 14 14 13 14 14 13 14 14 13 13 12 12 11 11 11 10 12 13 14 13 12 12 12 12 12 11 11 10 10 10 10 9 8 8 8 8 7 7 6 6 5 4 4 4 4
2 3 3 6 7 3 4 3 2 5 5 5 7 7 8 7 9 11 12 13 15 17 16 14 15 14 10 10 12 12 13 14 17 19 22 26 24 23 21 19 18 17 16 15 15 15 15 15 15 14 14 15 14 14 13 14 14 14 14 14 13 12 12 12 12 11 10 10 11 12 13 14 13 13 13 12 11 11 10 9 9 9 9 9 8 8 8 8 7 7 7 6 5 4 4 4 4
1 2 3 5 3 2 5 2 4 4 5 7 8 8 7 7 8 7 8 10 11 13 16 15 15 12 9 9 9 10 14 16 19 22 24 26 25 24 23 20 17 16 16 15 15 16 15 15 15 14 14 14 14 13 13 14 15 14 14 14 13 12 12 13 12 11 10 10 10 11 12 13 13 14 13 12 12 11 11 10 10 10 10 9 9 8 8 8 8 7 7 6 5 4 4 4 5
3 4 4 3 2 3 4 2 5 4 7 8 7 8 7 6 5 6 9 10 11 13 13 14 13 12 11 13 11 13 17 18 22 25 25 25 24 23 22 20 17 16 16 16 15 16 16 15 15 14 14 14 14 13 12 13 14 15 14 14 14 13 13 12 12 11 11 10 10 11 11 12 12 13 12 12 11 11 11 11 10 10 10 9 9 8 9 9 8 8 7 6 6 5 5 5 6
5 5 3 3 3 4 2 3 5 6 8 8 8 7 6 5 5 8 10 10 12 14 16 16 15 14 14 15 13 14 19 21 24 25 24 25 23 20 20 19 17 18 17 17 16 16 16 15 15 14 14 14 13 12 12 13 14 14 14 14 14 13 13 12 11 11 11 11 11 11 11 11 11 12 12 11 11 10 10 10 10 10 9 9 9 9 9 9 9 8 8 7 7 6 5 5 6
4 3 3 3 4 4 2 3 4 7 8 8 7 6 5 6 8 9 10 11 13 15 19 17 15 17 15 14 16 16 20 22 23 24 23 24 23 19 19 18 18 18 18 18 16 16 16 16 16 15 15 14 13 12 13 14 14 14 14 14 13 13 13 13 11 11 12 12 12 11 11 11 11 11 11 11 10 10 10 10 9 9 9 9 9 10 10 10 10 9 8 8 7 7 6 6 7
3 2 3 3 4 4 2 5 6 7 8 7 7 6 4 4 6 8 9 11 13 13 15 14 13 16 13 13 17 20 21 22 21 23 23 22 21 19 20 19 19 18 18 17 15 16 16 17 17 16 15 14 13 13 14 14 14 15 14 14 13 13 13 13 11 10 11 11 11 11 11 11 11 12 12 12 11 10 10 10 9 9 9 10 10 10 10 10 10 10 9 8 7 7 7 7 8
3 2 4 3 3 4 2 5 6 6 7 6 6 6 4 5 6 8 9 10 12 11 13 14 16 15 12 14 18 21 21 21 21 22 21 20 19 19 21 22 21 18 16 16 15 15 16 17 17 16 15 14 14 14 15 15 15 15 14 14 13 13 13 12 11 11 11 10 10 10 10 11 12 12 12 12 12 11 10 10 10 10 10 10 11 10 10 11 11 10 9 9 8 7 8 9 9
3 1 2 3 5 3 3 4 5 5 5 6 6 5 4 6 6 7 8 10 12 11 13 15 18 16 14 15 15 19 21 20 21 20 20 20 20 21 21 23 22 18 15 15 15 15 15 16 17 16 15 14 13 14 15 16 15 15 14 13 13 12 13 12 11 11 11 10 10 10 10 11 12 12 12 12 12 12 11 11 11 11 11 11 11 11 11 12 12 11 10 9 9 8 8 9 10
2 1 1 3 6 2 3 2 5 5 5 6 6 4 6 6 5 7 5 8 13 12 13 13 14 11 13 14 12 19 22 21 21 19 20 20 21 21 21 22 21 18 15 15 14 14 15 16 17 16 15 14 13 13 14 15 15 14 14 13 12 12 13 12 11 11 11 11 10 10 11 12 12 12 12 12 12 12 11 11 12 11 11 11 11 11 12 12 12 11 11 10 9 9 9 9 9
1 0 1 1 6 3 1 1 4 5 5 7 7 6 6 6 6 6 2 7 12 9 9 10 10 10 14 17 18 22 23 22 20 19 20 20 20 20 19 19 18 18 16 14 14 14 15 15 16 16 15 15 13 13 13 14 13 14 13 13 12 13 13 12 11 11 11 11 11 12 12 12 12 12 12 11 12 12 11 11 12 12 12 12 12 11 11 11 11 11 10 10 9 9 9 10 10
2 2 2 0 4 4 2 2 3 4 6 8 8 7 6 6 6 5 3 8 11 7 8 9 11 14 16 19 23 25 23 22 20 20 20 19 20 20 20 19 18 19 17 15 13 13 14 13 14 15 15 15 14 13 12 13 13 12 12 12 12 12 12 12 11 11 12 12 13 13 13 13 13 12 12 12 12 12 11 11 11 12 13 13 12 11 11 11 11 10 10 10 10 10 10 11 11
3 2 2 1 1 2 5 7 3 4 7 7 7 7 7 6 6 5 5 9 10 10 12 12 15 18 20 23 24 25 23 23 21 20 19 19 19 19 21 20 19 19 18 17 14 13 14 13 14 15 15 14 14 13 12 12 13 12 11 11 12 13 12 11 11 12 13 13 14 14 14 14 13 12 12 11 11 11 11 11 11 12 13 13 12 11 10 11 10 10 10 11 11 11 12 12 13
4 2 2 1 1 4 6 11 8 1 6 8 8 8 7 7 6 4 4 9 10 12 13 14 19 22 23 25 24 23 23 22 21 20 19 19 18 18 19 19 19 18 17 18 17 14 13 13 13 14 14 14 13 13 12 12 12 12 11 10 10 12 12 11 11 11 12 13 13 13 14 14 13 12 12 11 10 10 10 11 12 12 13 12 12 10 10 10 10 11 11 12 12 13 13 15 15
3 2 1 1 2 7 6 7 12 8 2 7 8 8 7 6 5 4 4 8 9 10 12 13 18 21 23 24 24 23 22 21 20 19 18 19 18 17 18 18 19 17 15 16 16 14 12 13 13 13 13 13 13 13 12 13 12 12 12 11 11 12 12 12 11 10 11 12 12 13 13 13 13 12 12 12 10 10 10 10 11 12 12 12 12 11 11 11 12 13 12 12 13 13 14 14 13
1 1 1 1 2 5 4 3 13 9 1 3 7 7 6 6 5 5 5 5 6 8 13 14 17 21 22 23 23 22 21 20 19 18 17 18 18 17 17 18 19 18 16 14 15 14 13 12 13 14 13 13 13 13 13 13 13 13 12 12 11 12 12 12 11 11 12 12 12 12 12 13 12 12 13 12 10 10 10 10 12 13 13 13 13 13 13 13 13 13 13 13 13 14 14 14 9
1 2 4 3 1 1 5 9 13 4 1 2 6 5 5 6 7 6 4 2 3 7 13 16 17 19 21 21 22 21 20 19 18 18 17 17 17 16 16 19 19 19 18 16 15 15 13 12 13 13 13 13 13 12 13 13 13 13 13 12 11 11 11 12 11 11 12 12 11 11 12 13 13 13 13 12 10 10 11 12 13 13 13 13 13 14 13 13 13 13 13 12 12 12 12 11 6
3 1 3 7 7 4 4 12 11 1 7 5 5 8 9 6 6 5 1 0 3 8 14 17 18 18 20 20 20 20 19 19 18 18 17 16 16 15 16 19 20 19 17 16 16 16 14 12 12 12 13 14 13 12 12 13 14 13 13 12 11 10 10 11 11 10 11 10 9 10 11 11 13 12 12 13 12 12 12 13 14 14 13 13 13 13 12 12 13 13 12 10 9 10 6 4 7
5 3 2 6 9 7 7 10 5 5 7 5 6 9 8 4 5 2 3 2 4 9 14 16 17 18 18 18 19 19 18 18 17 16 16 15 15 15 16 17 19 18 17 17 17 17 15 13 14 13 13 12 13 13 12 12 13 14 14 12 11 10 10 10 10 10 11 11 9 10 9 8 10 11 11 11 12 11 10 11 12 12 12 11 12 10 9 10 11 9 6 4 5 5 5 6 7
6 4 3 3 5 6 6 5 2 7 5 6 10 9 7 5 2 3 4 3 6 9 13 15 17 17 17 17 18 18 17 17 16 16 15 15 15 15 15 16 17 17 18 18 17 17 17 15 14 13 12 11 12 13 11 11 12 13 13 12 11 11 10 9 9 9 12 12 10 9 8 7 8 9 10 10 11 11 9 9 9 9 8 8 10 8 8 10 9 5 5 3 4 9 9 6 7
4 5 5 4 4 5 4 2 4 7 4 7 9 2 6 6 2 5 6 3 7 9 11 15 16 17 17 16 17 17 16 16 16 16 14 14 15 15 15 15 16 16 17 18 17 17 15 16 15 13 12 12 12 11 11 11 12 12 12 12 12 11 11 9 8 8 9 11 11 13 10 7 9 7 7 9 10 9 9 9 9 10 9 9 11 8 7 10 10 7 6 7 6 10 10 6 6
5 5 4 5 5 4 2 1 3 6 4 7 9 4 4 5 5 4 8 7 6 10 11 14 16 16 16 16 17 16 15 16 15 15 14 14 15 15 15 15 15 16 17 17 18 17 15 17 18 14 12 14 14 12 11 11 11 12 11 12 12 12 12 10 10 7 6 8 10 15 15 12 12 9 9 9 9 11 11 11 11 12 10 10 13 9 6 7 9 7 5 9 8 8 10 6 5
5 5 1 5 3 3 3 3 4 6 4 7 9 3 2 4 4 4 8 8 7 10 12 14 15 15 15 16 16 15 15 15 15 15 14 15 15 14 15 15 15 16 16 17 18 18 16 17 18 15 12 14 16 14 12 12 11 11 11 11 12 12 10 10 13 10 7 9 10 14 18 16 12 11 13 12 12 14 12 12 11 11 11 11 14 11 8 7 8 8 6 8 8 6 7 6 7
4 3 2 3 3 4 4 4 5 5 4 8 8 3 2 3 4 4 6 8 6 7 11 13 14 14 14 15 15 15 15 14 14 14 14 14 14 14 14 14 15 15 16 17 17 18 17 16 16 15 13 13 15 13 12 13 13 11 10 10 11 11 11 12 13 9 12 14 12 14 18 16 11 12 15 12 12 13 11 12 11 12 12 10 13 11 9 10 10 11 10 9 10 8 6 5 7
1 1 4 2 1 3 7 6 6 6 5 9 7 1 2 6 8 4 5 8 4 4 10 12 14 14 14 15 15 14 15 15 14 14 14 14 13 14 14 14 15 15 15 17 17 18 19 18 17 16 16 14 14 13 13 13 13 12 11 10 10 10 11 12 9 10 18 19 15 17 18 15 13 12 14 12 12 11 11 12 11 12 10 8 11 10 10 11 10 10 10 10 10 9 8 6 6
3 4 5 2 1 2 9 8 7 6 5 9 8 1 2 6 7 5 5 6 4 5 7 8 12 14 14 15 14 14 15 14 14 14 14 14 14 14 14 15 15 15 15 16 17 18 19 19 19 17 17 18 15 15 15 14 13 13 13 12 11 11 10 10 9 14 19 20 18 20 20 17 17 16 16 16 13 11 10 10 11 11 12 10 9 10 10 10 10 9 8 8 7 6 7 7 7
2 3 5 3 1 5 10 9 8 6 5 9 7 1 2 3 5 7 8 8 6 7 8 9 13 14 15 15 14 14 14 14 14 14 14 14 13 13 14 15 15 15 15 15 17 18 18 18 19 18 18 20 19 18 17 16 14 13 13 13 13 12 10 9 11 12 15 18 18 19 20 19 18 18 20 19 15 13 11 10 9 8 11 10 8 11 9 10 12 7 7 11 8 6 7 8 7
1 3 5 4 3 4 8 8 9 8 6 8 6 2 1 3 6 8 9 11 12 13 14 14 13 11 14 15 14 13 14 14 14 14 15 14 13 13 14 15 15 15 15 16 17 18 18 18 18 18 20 20 19 19 19 17 16 14 13 13 13 13 11 10 11 11 12 16 17 18 20 18 14 17 20 18 16 15 13 12 10 8 10 9 8 10 8 10 10 4 6 11 10 8 8 8 6
2 5 6 6 7 4 5 9 10 10 8 6 6 4 2 3 7 9 10 15 19 19 15 13 10 10 14 14 13 14 14 15 14 14 15 13 13 13 14 15 15 15 15 16 17 17 18 18 17 18 20 19 18 19 19 18 17 15 14 12 13 13 12 11 11 10 12 15 17 17 20 18 13 17 18 15 15 15 14 13 11 10 9 7 7 8 8 10 8 4 6 7 8 7 9 9 6
7 8 6 6 8 3 4 8 9 11 9 5 4 5 5 5 6 8 12 18 20 17 15 14 10 10 14 15 14 15 15 15 14 15 16 13 13 13 14 15 15 15 16 16 17 17 19 17 17 18 19 19 18 18 18 18 16 15 15 13 12 13 12 12 11 11 13 14 13 13 17 17 14 18 18 13 13 14 15 14 12 12 9 7 9 8 7 9 8 8 7 6 8 5 6 7 4
10 8 5 3 3 3 4 9 11 11 8 5 5 5 7 7 7 8 13 20 18 14 16 15 10 10 14 15 16 15 15 16 15 16 16 14 14 14 15 15 15 15 15 17 17 17 18 17 19 19 19 20 18 17 18 17 15 15 15 13 14 15 13 12 12 13 14 14 12 12 15 15 14 19 18 14 11 12 14 13 12 13 11 11 12 9 8 8 8 10 8 7 7 5 4 5 3
9 6 4 3 4 3 2 9 11 9 5 4 8 6 8 10 10 10 16 22 18 14 16 15 13 13 15 16 18 18 16 16 16 16 17 15 15 15 15 15 16 15 15 17 18 18 18 18 20 20 20 20 18 16 18 18 15 16 16 13 13 15 15 13 12 13 14 14 13 13 14 14 15 19 18 14 10 8 11 10 11 12 11 11 10 9 10 8 8 9 8 8 7 6 4 2 5
8 6 4 4 6 3 4 5 7 5 2 5 10 8 8 10 10 10 14 16 15 15 16 16 17 16 14 15 18 20 17 17 17 18 18 17 17 16 15 16 16 17 16 17 19 18 17 17 19 20 20 19 17 16 17 18 15 15 16 14 13 14 15 13 13 15 13 13 14 14 14 15 16 18 18 16 10 8 8 7 9 10 8 8 8 9 10 8 9 8 6 8 7 7 5 4 5
4 5 4 5 5 2 6 6 6 5 1 3 7 7 9 11 10 11 12 12 16 20 18 16 17 17 15 14 16 20 19 19 19 19 20 19 19 18 16 17 17 17 17 17 18 18 18 18 18 19 18 18 17 15 16 18 16 14 15 15 15 14 14 13 14 15 13 13 15 15 15 16 16 17 17 16 12 9 8 6 8 11 8 8 8 9 10 8 8 5 3 6 5 5 6 4 6
6 6 5 4 5 6 5 8 7 6 4 2 3 4 7 12 11 11 13 12 14 20 22 20 18 17 17 16 18 21 20 21 21 19 21 21 20 19 18 18 17 18 18 18 19 19 19 19 18 18 18 18 17 15 15 18 17 16 16 17 17 16 15 15 14 14 14 14 16 16 16 17 16 17 16 15 14 12 10 8 9 12 9 8 8 8 8 7 7 4 3 7 6 5 6 4 6
9 9 7 5 7 10 4 9 8 7 8 5 4 6 4 12 12 10 11 12 10 13 18 20 20 21 23 22 22 23 20 22 22 20 22 21 20 20 19 19 18 19 18 19 19 19 19 19 19 19 19 18 17 15 16 18 18 17 18 17 17 18 18 17 15 16 16 16 17 15 17 18 16 17 16 14 14 13 12 10 9 10 9 9 9 7 7 6 5 5 6 7 6 6 6 4 5
10 11 9 6 11 12 9 14 9 6 5 6 3 5 2 11 14 11 10 11 11 11 12 14 17 22 25 21 18 22 21 20 21 21 22 21 20 21 20 19 19 19 19 19 19 18 18 19 20 20 19 18 18 17 18 20 20 20 20 19 18 19 21 20 17 18 17 17 16 14 17 19 17 17 15 13 13 13 13 13 10 8 8 10 9 8 8 6 6 8 8 7 6 7 8 7 4
7 5 6 11 14 12 7 9 7 3 2 7 6 5 2 5 11 14 12 11 12 11 12 14 15 18 20 17 17 21 20 19 20 21 21 21 22 23 21 20 19 19 18 18 17 17 18 18 19 19 19 20 20 18 18 19 21 22 22 22 20 18 21 21 18 18 18 17 15 14 17 19 19 18 15 15 16 14 14 15 14 11 9 9 10 10 7 6 8 10 9 8 7 9 8 6 4
4 3 8 13 13 7 8 10 7 4 1 5 9 6 4 2 7 14 14 13 13 12 12 14 16 18 17 17 19 20 19 20 22 22 23 23 23 24 23 21 19 18 17 17 17 17 18 19 20 19 18 20 21 19 17 17 19 22 23 24 23 19 20 21 18 17 18 17 15 16 17 17 20 19 15 16 17 15 15 15 16 16 13 11 11 12 10 8 10 9 10 11 8 8 9 7 6
8 7 8 10 4 1 8 10 5 4 4 5 6 5 4 3 5 13 15 13 13 14 14 13 14 17 17 18 19 18 20 23 24 24 24 25 25 24 23 21 19 18 17 18 17 17 17 19 20 19 18 20 20 17 15 14 17 20 21 24 24 22 20 20 19 18 17 18 17 18 18 16 18 19 16 17 18 17 16 15 15 16 15 13 12 12 12 11 10 8 10 11 8 7 9 8 7
13 10 2 7 8 5 7 7 5 6 6 4 3 1 3 4 3 9 12 9 7 10 12 11 13 16 16 18 20 22 24 25 24 24 24 26 25 23 23 21 19 18 18 18 17 16 17 19 21 20 19 20 18 15 14 13 14 17 19 23 25 24 22 20 21 21 18 18 19 18 18 16 16 18 17 18 19 18 16 16 15 15 15 15 13 12 12 10 9 7 6 8 7 8 10 9 6
12 9 3 5 9 6 7 5 4 6 5 5 5 5 5 4 4 5 5 7 8 9 10 10 12 15 15 16 17 23 28 27 24 23 25 26 25 24 23 22 20 19 20 20 17 17 18 20 22 21 19 19 17 14 14 13 12 14 18 22 25 25 24 22 23 24 20 18 21 19 18 18 17 17 18 19 20 19 17 16 15 15 15 15 14 13 13 11 8 5 4 7 8 7 9 10 7
7 6 4 6 6 5 6 3 3 6 4 5 8 7 6 3 4 3 3 9 11 8 9 10 9 12 15 16 15 17 22 25 25 24 25 26 26 25 23 23 24 21 20 21 17 16 19 20 21 21 19 19 16 12 12 12 11 13 15 19 22 24 25 24 24 26 23 18 22 22 18 20 20 18 19 20 20 20 18 16 16 16 15 15 15 15 15 13 10 8 8 9 10 9 9 10 10
6 4 5 6 4 3 4 3 4 6 5 6 8 6 3 3 5 3 4 10 12 7 6 13 13 11 14 17 16 15 15 18 23 23 22 26 27 27 24 23 26 22 21 23 18 16 21 21 20 20 18 18 17 14 13 11 10 12 13 16 20 23 25 25 24 26 25 18 21 23 20 21 22 19 19 21 21 20 19 17 16 16 15 15 15 17 16 14 12 11 10 9 10 11 10 10 10
8 6 6 7 4 3 4 4 4 5 6 8 5 1 3 5 3 3 8 9 9 10 10 13 11 6 10 13 13 17 18 16 18 21 20 26 30 28 24 22 24 23 22 23 20 18 21 22 20 19 17 17 18 16 14 13 11 11 13 14 18 23 26 26 24 25 26 21 20 22 20 21 23 22 21 22 21 18 17 17 16 14 15 14 14 15 16 16 14 12 11 8 9 10 10 9 10
9 8 8 8 5 4 5 4 4 5 3 2 0 3 3 4 1 6 11 9 8 12 16 16 11 7 10 10 10 18 24 21 20 23 24 27 30 28 26 24 25 24 22 23 23 21 22 22 21 21 17 16 18 18 15 15 14 13 14 14 17 23 27 27 26 25 26 23 21 22 22 21 23 24 23 21 18 16 16 17 16 15 14 14 15 15 15 17 16 14 14 13 12 11 10 10 11
8 8 8 9 6 4 5 7 7 6 3 1 3 5 3 3 6 7 8 8 9 9 11 16 16 12 11 11 9 11 20 25 26 24 22 25 26 25 25 27 26 25 25 25 25 22 21 22 23 23 18 14 17 19 18 16 15 14 15 15 16 21 26 28 28 26 25 24 21 21 23 23 21 22 23 20 17 17 19 19 18 18 15 14 16 16 15 17 17 15 15 17 16 13 11 12 12
5 7 9 8 8 6 6 8 7 7 6 3 3 5 4 5 7 7 5 4 8 7 7 10 12 9 7 8 7 6 9 18 25 23 17 19 24 23 23 26 26 25 25 25 24 22 22 24 25 24 18 15 16 19 19 17 15 15 14 15 17 19 22 26 28 27 25 24 22 20 21 23 22 21 21 21 19 20 21 20 20 19 16 15 16 16 16 16 17 16 15 16 15 14 13 13 13
5 6 8 8 8 8 7 5 3 4 5 2 2 3 3 3 3 6 5 5 6 6 6 6 6 7 6 5 4 3 4 4 17 23 18 16 23 25 23 24 26 25 24 23 23 22 23 24 24 22 19 16 16 17 19 18 16 16 16 17 20 21 22 24 27 28 26 23 22 21 20 22 23 23 21 21 21 21 21 20 19 17 16 17 17 16 16 16 17 19 18 17 16 14 14 15 16
13 7 6 8 7 6 5 4 3 4 5 3 5 6 4 2 1 5 6 6 7 7 5 4 4 4 2 1 2 3 0 1 9 20 19 17 23 26 24 23 25 25 24 24 22 21 22 24 23 22 19 17 17 16 17 17 15 15 16 17 18 19 20 21 23 25 25 23 22 23 22 22 23 24 23 22 21 21 22 21 19 16 17 19 18 17 17 17 18 19 19 19 17 16 16 16 17
15 11 7 6 5 4 4 4 4 6 5 4 5 5 0 5 3 2 4 6 7 7 4 3 6 6 7 3 2 2 1 1 8 19 20 20 25 25 23 23 23 24 24 24 23 21 22 23 21 20 19 18 18 17 16 15 15 15 15 15 15 16 17 18 19 22 24 24 24 24 24 23 23 23 24 24 22 21 21 22 22 21 20 20 19 19 19 19 19 18 18 18 16 16 18 18 18
11 9 7 5 4 5 5 4 5 6 5 4 3 1 2 3 1 1 6 8 7 6 4 2 10 12 2 4 3 5 1 0 9 17 18 22 27 24 21 23 23 24 24 23 24 23 22 19 17 18 19 18 19 18 17 16 16 16 16 15 15 16 17 18 20 22 24 25 25 26 26 24 23 23 23 24 24 22 21 21 23 23 22 21 21 21 20 19 19 19 19 19 17 16 17 18 19
10 9 7 7 6 6 5 4 6 5 5 4 2 1 1 3 5 4 7 6 5 4 3 4 10 10 6 2 4 5 3 2 7 12 14 19 24 22 20 22 23 23 23 22 22 21 19 17 17 19 21 20 19 18 17 18 17 17 17 16 17 18 19 20 22 25 25 25 25 25 25 24 23 23 22 23 24 24 23 22 22 22 23 22 22 23 22 21 20 21 21 20 19 18 19 20 21
Wind_Direction
109 80 81 32 316 280 283 245 238 179 209 246 88 88 95 97 98 101 99 104 102 100 99 99 99 96 100 95 95 84 53 52 77 86 122 137 144 142 138 136 138 139 134 134 137 135 133 129 127 129 124 123 125 125 126 127 128 127 126 126 127 127 126 126 125 124 125 130 132 134 136 139 144 146 147 148 145 142 140 134 130 131 132 131 131 132 133 135 132 129 127 127 129 129 129 120 107
72 359 275 284 272 249 282 247 265 228 214 93 82 80 89 104 102 95 95 97 102 111 105 94 96 99 101 99 97 87 59 61 86 96 116 137 139 134 136 137 138 138 135 135 137 136 133 130 132 132 126 127 127 127 129 130 130 128 128 127 128 127 127 127 127 126 127 128 128 133 135 138 143 145 147 149 147 145 144 136 131 133 133 133 132 135 139 141 139 137 135 135 140 140 133 122 101
104 281 260 256 257 239 219 186 259 248 200 89 97 91 89 94 89 90 96 96 102 110 107 97 93 96 102 96 81 84 79 81 100 110 121 137 137 135 139 136 137 137 134 134 136 137 134 135 137 132 129 128 127 129 132 133 131 129 129 128 128 128 130 129 127 127 129 130 130 133 136 138 140 144 145 146 145 146 146 137 133 136 136 138 136 138 140 141 142 144 144 143 147 146 135 122 94
150 259 286 289 252 244 239 151 258 252 109 97 95 91 90 93 97 96 97 100 108 110 106 104 89 82 92 92 84 86 99 102 108 117 127 140 139 138 141 137 137 135 132 134 136 137 136 139 138 132 131 128 127 129 133 136 134 131 128 127 128 129 131 129 127 127 131 134 135 137 139 139 139 142 143 145 146 147 145 139 139 141 142 143 142 143 143 143 145 149 150 152 155 148 137 123 93
104 267 293 278 245 141 281 265 264 225 87 95 91 96 96 96 106 103 103 105 112 111 106 108 98 93 89 87 96 98 113 118 116 121 129 139 140 139 141 140 138 136 134 136 137 139 140 139 136 134 131 126 129 132 134 136 137 135 128 127 129 130 130 130 129 128 132 137 138 140 143 142 140 141 143 148 150 150 147 144 146 147 148 149 148 147 147 150 152 156 156 164 164 148 138 123 101
341 285 257 258 255 232 243 260 278 83 79 91 99 97 93 97 107 108 110 105 104 106 105 107 110 108 88 79 88 105 125 126 126 130 131 139 141 138 142 140 137 137 135 137 139 142 140 136 136 136 129 126 132 134 136 136 136 136 130 130 132 132 131 131 132 131 136 139 139 142 145 145 146 147 149 153 156 157 152 151 153 153 154 155 157 154 155 157 161 167 166 170 164 149 139 125 113
342 317 233 246 252 236 256 245 84 83 81 88 103 97 91 97 104 110 115 108 102 108 113 113 116 111 94 95 89 98 127 131 133 137 135 139 139 142 148 143 138 137 135 138 142 143 137 136 138 135 129 129 133 136 137 134 133 134 132 131 132 133 133 131 132 133 138 139 139 142 145 147 150 153 156 159 163 166 161 162 164 165 163 163 167 163 164 163 167 174 172 171 162 155 141 131 128
257 289 236 251 246 208 265 235 84 79 87 83 90 91 89 86 93 108 110 106 102 111 118 116 113 101 99 118 101 100 122 129 134 136 137 137 138 148 155 149 143 140 138 139 143 141 136 139 139 133 132 131 134 136 136 133 132 133 132 131 133 136 134 132 133 135 138 140 141 143 144 147 150 153 158 160 164 168 169 173 171 172 171 170 173 171 171 169 172 177 176 172 163 157 142 142 139
255 269 257 264 271 243 261 119 95 89 95 92 90 87 85 80 96 115 108 103 103 110 113 113 111 105 113 115 110 112 116 127 131 132 137 138 142 149 150 149 145 141 142 140 142 141 138 141 138 136 136 132 134 134 131 131 131 131 132 133 135 136 133 131 132 134 138 141 143 143 141 144 148 149 154 159 164 168 171 175 173 173 174 173 175 175 174 173 177 178 178 172 163 157 150 151 144
282 274 269 278 282 260 241 106 105 100 96 98 97 93 94 94 92 97 102 103 104 107 105 107 109 115 124 113 114 122 121 131 131 132 138 139 145 146 139 143 141 140 143 142 142 141 141 141 139 140 136 130 133 131 128 128 129 130 131 131 132 133 131 130 131 133 135 138 139 140 140 142 146 146 151 156 162 168 168 170 172 173 175 174 174 174 174 176 178 176 173 167 163 161 160 156 145
287 248 258 278 272 257 169 129 116 104 101 100 96 88 89 101 100 102 106 102 103 108 110 111 111 117 120 107 115 128 130 136 134 138 142 137 143 144 135 137 138 139 142 143 143 142 142 140 141 140 134 132 133 132 130 129 128 127 127 128 128 129 130 132 133 133 134 137 138 139 142 144 145 146 149 151 156 162 161 163 165 169 175 175 173 173 173 176 175 171 169 165 166 166 164 154 146
288 256 270 258 271 279 141 133 121 111 113 111 106 98 81 88 103 113 111 108 111 113 115 117 121 123 117 105 119 131 136 139 137 138 139 137 140 139 133 132 135 139 139 141 144 143 142 142 142 140 136 134 134 135 133 130 126 123 124 126 127 130 131 132 133 133 133 135 137 140 146 147 146 147 146 148 152 156 157 158 160 163 170 173 172 173 173 173 170 167 167 166 166 164 158 151 145
279 303 290 273 290 278 143 116 122 128 124 108 103 103 86 78 78 90 96 104 112 114 113 114 119 119 112 114 125 134 137 138 137 137 136 136 136 136 137 134 134 139 138 138 141 143 144 143 144 143 139 136 137 138 133 129 124 120 122 124 128 129 128 129 131 135 134 135 138 140 145 145 145 147 146 147 149 152 155 155 156 158 162 165 166 169 167 165 164 164 166 163 159 155 152 148 141
290 337 310 299 304 253 148 119 141 136 110 107 112 105 92 90 76 84 95 102 102 105 110 117 122 116 115 121 130 137 139 140 139 139 141 141 138 137 139 139 138 141 140 138 139 142 146 146 146 143 139 140 139 138 134 128 123 121 121 124 126 126 126 125 128 135 137 141 144 139 139 140 143 145 146 146 146 147 150 151 153 154 154 154 156 158 156 157 159 161 158 153 148 148 148 141 132
265 12 316 296 308 257 148 133 145 127 113 124 131 126 113 104 85 88 90 99 101 110 118 123 125 125 132 136 144 144 141 143 141 140 140 140 137 132 131 138 140 139 138 140 139 141 145 146 147 144 141 145 143 140 138 130 125 125 124 125 125 125 125 122 125 131 137 142 143 136 134 136 139 141 142 143 143 143 146 149 151 150 148 146 148 150 151 154 156 155 150 145 141 141 139 130 125
223 287 301 316 317 307 192 215 144 125 121 130 137 142 125 102 93 99 91 104 109 121 123 120 123 131 142 139 143 145 142 144 143 138 136 134 133 130 128 135 138 136 141 141 137 140 144 145 149 147 144 147 147 143 139 132 129 127 126 127 125 124 122 121 123 126 134 138 136 134 133 133 135 137 139 140 140 142 144 147 148 147 145 143 145 148 150 153 154 152 145 141 136 132 127 123 124
242 254 284 117 319 328 324 292 143 130 124 134 142 140 121 102 107 130 144 112 115 120 95 99 116 125 136 136 139 143 143 144 143 139 139 137 135 133 132 134 134 137 144 139 134 141 141 143 148 149 148 150 149 145 141 136 131 128 128 127 125 124 120 120 121 124 130 132 134 135 133 131 132 134 135 136 138 141 143 145 146 145 144 145 147 150 151 151 150 146 141 137 132 126 125 123 122
243 245 258 215 320 324 328 343 11 136 135 134 137 130 123 122 129 158 150 114 114 108 90 94 106 114 127 133 138 142 144 145 144 144 143 142 141 139 137 137 134 137 142 138 141 149 145 146 149 150 154 154 152 150 146 140 136 132 129 127 125 124 121 121 124 126 128 131 135 135 134 132 132 134 133 135 138 141 142 142 144 144 145 148 148 149 146 145 145 143 140 134 129 126 125 120 114
240 236 213 177 7 295 332 353 332 265 131 133 138 136 130 135 139 154 151 125 119 107 102 106 108 114 125 133 140 143 146 147 148 149 147 147 147 143 140 139 140 142 145 145 151 156 151 150 152 152 155 155 154 153 149 145 141 138 135 135 132 127 126 127 131 131 132 136 137 135 135 133 134 137 133 136 140 142 143 141 142 143 145 146 145 144 141 144 143 139 136 131 131 128 120 110 102
259 269 196 74 344 297 357 2 292 284 127 138 136 129 123 128 133 133 132 122 118 116 121 122 120 126 132 137 144 146 149 150 151 152 150 152 149 146 146 142 144 146 147 150 153 154 154 153 153 154 153 154 156 153 150 150 146 144 144 144 141 136 134 135 138 139 137 136 137 138 136 135 138 141 135 137 142 145 146 143 141 140 142 143 141 139 139 142 138 134 133 131 131 124 112 99 88
269 338 148 26 349 302 356 311 265 268 275 145 125 126 125 111 103 116 121 110 115 128 133 133 131 135 138 142 147 150 152 151 154 153 151 154 150 148 151 146 146 149 151 155 153 152 157 158 155 157 156 155 156 154 153 153 151 150 150 150 149 145 142 144 145 143 140 134 135 138 135 135 138 140 138 137 141 144 144 142 139 138 139 139 137 137 138 137 134 132 130 130 127 115 102 89 83
75 95 150 179 155 294 300 275 257 230 81 72 95 71 59 80 79 87 97 96 126 131 132 135 138 141 143 147 149 151 153 154 156 154 154 157 151 149 150 146 148 152 157 160 157 156 160 161 160 160 159 156 156 157 157 155 154 154 153 154 155 152 149 149 148 146 146 137 134 139 139 138 137 139 140 139 143 141 138 138 137 137 136 135 136 136 134 134 134 131 130 132 120 99 87 86 127
86 156 183 192 187 191 244 259 262 126 70 45 42 34 40 69 67 58 104 143 113 125 131 137 143 146 146 149 152 153 155 157 159 157 158 158 153 152 150 147 148 151 155 155 156 161 163 164 164 162 161 159 157 154 158 156 155 157 154 155 158 159 159 158 155 155 155 143 138 143 140 138 138 140 142 143 145 138 133 137 139 138 135 137 138 133 130 137 138 130 128 124 99 85 86 133 174
134 172 198 199 197 208 210 228 260 62 66 41 35 34 26 52 74 8 254 153 107 125 134 139 145 148 149 152 154 154 157 160 159 159 159 158 154 155 153 149 149 149 151 152 158 164 164 163 161 160 165 164 154 153 159 158 159 159 155 157 160 163 164 163 158 160 163 153 148 146 132 132 142 142 143 145 143 136 132 135 137 131 132 137 132 129 138 141 132 127 131 109 93 123 174 191 177
149 149 167 205 207 233 239 228 88 75 67 51 55 37 330 307 109 228 242 132 119 130 138 143 148 151 152 156 157 156 160 161 159 159 159 159 157 157 155 151 149 149 152 154 160 166 162 159 158 157 164 163 154 158 158 158 165 161 158 162 165 165 163 164 166 170 168 156 158 159 137 126 141 140 137 138 136 141 146 139 133 132 149 148 130 145 175 149 131 164 186 151 166 174 192 194 163
119 121 158 204 212 231 254 254 100 98 89 81 81 61 267 286 278 217 235 202 141 145 150 148 153 156 157 159 158 158 162 162 161 161 161 160 158 159 156 154 153 151 154 154 157 169 163 153 156 157 159 160 158 156 151 159 168 162 162 166 167 165 162 169 168 165 166 162 171 170 162 158 153 151 145 138 133 141 153 151 150 161 178 158 139 166 180 137 139 192 184 149 175 170 181 207 165
117 112 154 197 212 228 205 186 120 118 115 117 129 193 244 306 314 221 233 239 157 155 161 155 160 159 160 162 159 163 166 164 164 163 162 160 159 163 159 157 157 153 157 155 155 168 165 155 160 166 164 164 163 153 151 165 170 165 166 163 166 165 165 173 157 155 176 183 185 167 167 180 172 173 171 160 156 154 157 163 166 169 178 158 149 176 183 129 141 191 174 149 181 165 161 200 188
107 85 175 194 193 240 195 175 154 139 129 132 134 138 289 312 302 226 231 231 171 168 170 162 166 163 164 164 160 166 167 165 167 165 166 164 163 166 163 161 159 155 158 157 155 165 169 164 167 170 171 171 164 153 156 168 171 172 166 161 170 169 170 170 147 151 184 200 204 167 162 171 165 167 172 174 168 159 160 165 165 166 177 167 153 166 188 171 163 190 188 158 186 183 167 202 198
109 87 254 199 183 238 204 185 179 160 146 154 141 79 324 263 253 239 232 221 191 182 178 169 169 168 168 164 162 169 168 169 171 169 170 167 167 169 166 165 161 158 159 157 157 164 168 169 168 169 175 175 163 155 161 170 172 173 170 170 178 173 169 158 136 152 192 201 203 172 164 162 149 161 170 172 161 156 164 160 163 174 180 174 154 160 184 183 177 187 197 192 196 199 197 211 190
60 225 267 209 201 228 180 181 190 172 151 167 171 4 271 233 233 232 212 213 233 216 190 180 174 171 173 168 166 172 170 172 174 173 173 169 171 172 169 167 163 160 160 157 158 160 161 164 166 168 175 175 167 166 170 171 171 172 177 184 187 180 166 149 144 191 202 201 193 173 169 154 142 160 166 164 159 163 167 157 170 182 176 169 156 166 183 178 177 181 198 207 193 186 194 204 199
346 311 288 213 195 175 164 175 186 173 158 179 190 233 242 225 212 196 197 206 237 232 206 198 187 174 173 173 170 174 173 175 178 175 174 172 173 175 172 169 167 162 161 161 161 160 159 160 163 169 172 170 171 175 174 173 173 174 178 183 187 181 164 157 182 209 210 206 191 175 169 156 151 166 167 165 166 167 167 168 181 178 173 177 164 171 179 174 173 178 207 207 184 183 195 208 218
357 325 295 282 244 161 157 170 183 175 169 188 199 214 182 208 190 169 185 201 209 239 256 234 202 178 173 177 174 175 173 176 180 175 173 173 174 177 174 171 169 165 165 166 163 161 161 159 161 168 168 167 172 173 174 175 176 180 179 180 180 169 163 179 196 209 215 207 189 177 174 167 165 171 171 169 168 161 160 171 176 164 173 180 167 171 172 172 174 181 209 196 195 205 197 216 228
282 248 272 296 272 179 153 168 181 168 160 183 208 250 122 213 206 159 170 206 200 211 240 231 205 187 177 175 172 173 176 178 180 174 171 174 177 178 175 174 173 170 169 169 166 164 164 160 160 166 163 167 173 169 173 174 173 179 179 180 175 165 169 186 195 206 207 193 180 180 183 179 178 174 170 170 168 162 163 169 168 164 171 164 164 177 163 158 163 173 205 193 201 211 205 218 213
239 237 253 237 241 263 141 166 182 170 164 178 199 215 183 191 198 170 173 205 200 196 218 224 215 208 185 174 171 174 177 176 177 174 172 175 177 178 177 175 175 175 172 171 170 166 167 163 162 169 165 169 175 172 174 172 173 178 176 180 175 165 173 181 188 192 183 178 177 182 187 187 186 175 169 170 168 168 173 171 163 164 166 159 173 182 159 149 148 167 209 196 190 216 240 233 215
213 225 245 227 224 249 124 155 178 179 176 185 199 192 188 174 183 193 177 191 201 193 204 215 213 209 191 175 169 178 179 172 175 176 174 179 179 182 182 176 177 178 173 173 171 169 174 169 163 171 169 171 178 178 176 171 177 179 171 179 175 162 170 178 179 176 168 170 178 189 191 189 183 175 172 171 171 173 173 166 160 162 168 178 180 175 163 155 152 171 203 206 187 211 236 211 228
219 229 249 279 225 210 140 140 163 185 176 182 226 186 176 179 186 203 173 182 205 196 192 206 209 210 200 178 165 178 183 170 175 177 174 182 183 184 185 180 181 179 173 175 171 170 177 171 164 170 175 180 184 180 175 171 178 177 168 178 175 161 168 178 175 174 171 164 176 199 196 190 182 176 177 175 174 172 165 163 167 171 176 184 181 172 166 160 162 172 185 198 194 208 194 171 254
231 260 271 290 260 235 145 127 148 185 183 204 239 201 168 177 187 194 171 177 197 194 187 197 208 211 206 190 170 176 185 174 179 180 177 183 183 186 186 184 185 181 178 177 171 173 178 173 169 173 182 189 190 186 177 172 178 175 169 179 177 164 164 176 176 173 175 165 180 205 198 193 187 179 183 181 174 168 162 164 173 178 176 174 178 179 174 169 174 174 174 180 184 210 234 264 265
226 256 253 248 247 202 128 114 130 167 224 221 222 210 186 183 182 180 172 174 181 190 193 193 205 210 210 202 171 170 183 179 182 183 184 187 185 189 188 185 188 184 184 180 174 179 181 178 178 179 185 191 194 197 184 173 180 178 171 177 181 172 165 173 178 175 179 173 184 206 199 193 189 181 187 187 177 164 163 167 167 171 171 165 167 176 177 168 166 167 167 175 177 204 230 270 255
278 273 248 258 269 182 148 162 154 154 246 219 203 209 192 183 179 171 180 187 176 185 194 195 205 204 208 212 178 174 181 179 187 184 184 191 187 190 188 185 193 190 188 185 179 182 181 181 188 185 186 193 197 198 186 175 181 179 175 180 181 179 174 175 181 178 180 179 187 201 196 189 187 185 190 190 183 168 164 178 172 166 173 181 174 175 181 173 167 165 179 198 211 218 208 230 239
278 266 254 255 251 250 201 165 158 166 198 245 271 258 181 173 179 169 180 191 176 183 190 193 201 198 209 215 190 184 179 176 189 187 187 194 189 190 192 187 194 194 191 190 185 184 182 184 194 192 186 195 200 195 186 177 179 179 181 187 182 178 179 177 182 183 180 187 193 194 191 189 188 188 190 191 191 184 176 184 186 176 171 182 187 191 193 182 182 194 217 223 228 220 203 211 227
253 237 246 270 255 260 225 146 159 186 194 195 247 267 183 165 175 167 175 185 182 190 193 195 195 194 208 210 188 186 182 176 187 190 190 195 190 193 197 191 192 196 196 194 189 186 185 185 193 193 185 193 200 195 189 179 180 184 183 189 184 176 179 178 181 186 186 198 203 196 191 191 190 190 189 191 196 196 189 186 189 183 178 182 189 206 206 190 203 222 233 234 215 217 243 246 218
253 225 206 227 259 252 162 146 173 210 201 173 209 277 184 160 173 170 167 179 185 190 199 207 201 196 203 202 184 185 187 181 188 193 190 191 193 196 200 195 192 198 200 199 195 190 189 186 189 192 186 189 196 198 197 187 186 189 183 188 189 179 179 178 183 187 188 200 206 201 198 194 192 191 185 188 198 200 197 195 188 184 196 197 190 200 205 202 220 220 219 225 210 218 252 266 234
262 255 208 203 236 249 184 180 224 256 163 159 188 270 271 166 167 168 169 180 185 185 198 206 205 205 202 192 180 184 190 190 193 197 193 193 196 195 200 200 195 198 200 200 199 192 190 189 191 195 189 189 198 205 207 198 193 192 186 189 190 180 176 177 184 190 189 195 200 197 199 198 194 191 184 188 201 206 204 201 195 191 197 200 195 192 193 207 226 223 210 203 208 212 220 240 241
244 270 272 229 215 238 253 257 275 318 25 172 193 221 274 295 153 162 171 182 185 189 202 200 200 207 201 193 188 185 192 195 194 197 196 198 199 195 198 201 197 197 198 200 199 194 192 191 193 196 190 192 202 207 208 206 201 196 190 191 190 183 180 179 183 190 190 191 192 192 199 202 197 192 189 192 200 209 212 209 208 206 206 207 203 192 190 210 222 227 215 198 201 213 210 220 236
257 234 273 275 252 249 262 269 288 282 266 234 210 193 246 282 164 168 174 184 191 191 196 197 201 203 195 197 197 188 193 196 196 199 197 200 202 197 196 199 199 196 196 198 196 195 194 189 192 196 190 196 206 208 207 208 206 200 195 195 194 191 187 183 185 191 193 194 192 194 201 206 202 195 188 193 203 212 216 217 216 214 213 213 210 196 196 213 219 216 214 210 215 231 228 223 231
253 251 319 321 309 310 275 272 284 271 258 267 292 191 250 274 208 191 185 181 179 180 189 190 199 204 202 203 193 184 198 206 204 202 198 198 200 198 196 197 199 194 193 193 191 196 195 187 192 197 194 200 208 210 209 207 202 202 201 199 199 197 190 186 189 188 189 197 195 193 199 203 208 205 194 196 209 217 221 224 223 218 214 214 212 204 200 208 218 213 216 232 236 235 230 219 222
249 274 343 281 265 259 257 263 303 299 280 270 260 221 231 257 245 234 195 154 138 155 177 180 194 202 207 218 200 185 195 201 201 204 201 196 197 197 196 198 197 192 195 193 188 194 192 187 194 199 199 200 201 208 214 211 199 195 200 202 202 201 191 187 193 186 181 196 198 193 196 196 200 208 206 207 214 221 225 225 225 221 218 217 212 205 198 193 202 214 233 244 240 230 221 210 215
251 273 279 251 239 228 246 247 268 270 260 285 279 242 225 245 267 264 145 130 128 144 165 165 195 213 206 218 220 203 198 192 194 204 199 191 197 197 194 198 194 190 195 188 184 194 191 190 198 201 201 197 196 208 217 214 200 189 196 202 203 203 195 190 194 187 179 194 202 196 194 195 195 201 210 219 220 221 226 224 222 222 219 216 210 202 197 190 189 206 227 231 229 235 234 221 219
234 247 255 255 225 197 255 253 249 263 258 273 286 288 280 274 267 247 114 107 120 142 162 159 183 219 210 208 213 216 219 201 196 207 196 182 191 195 190 194 190 187 193 185 182 200 198 195 201 203 204 201 199 209 215 217 212 198 199 205 204 204 198 193 195 190 182 191 201 196 195 199 199 196 206 220 224 225 229 226 222 225 223 216 209 204 201 198 193 201 217 218 219 233 244 239 229
213 225 236 251 233 200 244 244 243 258 257 256 244 196 257 254 258 88 82 82 120 147 146 152 175 204 190 200 211 210 223 225 205 206 204 189 188 189 186 189 188 186 190 183 180 193 197 196 202 207 208 207 205 206 211 217 218 208 206 210 208 205 200 195 196 193 187 193 199 193 195 204 204 201 204 214 223 226 230 230 228 228 224 219 212 209 207 205 202 205 213 217 229 241 245 242 238
200 220 230 243 247 226 235 234 240 236 231 292 167 169 245 257 227 109 112 107 107 122 134 150 174 183 171 194 222 201 201 217 214 204 207 204 191 183 182 186 189 188 185 182 179 187 195 195 200 207 207 207 209 207 209 213 214 215 213 212 209 206 205 200 198 195 191 197 203 197 196 202 205 208 209 211 217 216 215 226 235 231 222 218 216 215 209 206 210 215 215 215 225 240 248 247 244
185 204 225 236 232 211 234 248 263 269 233 173 192 216 234 200 178 151 135 129 114 117 140 152 164 178 185 198 221 205 190 197 207 206 204 200 184 173 177 182 185 187 186 184 181 184 194 196 199 206 207 211 213 208 212 217 217 219 216 211 209 206 207 205 203 201 197 197 202 204 205 205 207 214 216 214 214 213 211 216 228 232 226 217 218 220 215 212 219 226 225 223 222 225 237 248 250
178 191 215 236 237 217 234 244 249 271 264 210 198 218 202 182 168 134 109 126 132 142 164 155 156 173 197 201 204 235 217 190 187 193 202 194 177 169 175 179 180 185 190 192 187 184 191 196 200 204 208 215 213 206 212 220 221 221 216 209 205 203 205 207 207 207 204 200 199 205 212 211 210 216 220 219 216 220 224 222 225 231 227 221 222 223 220 219 223 228 233 238 239 233 230 235 245
227 204 201 216 244 241 248 263 251 260 268 276 299 262 220 203 164 135 135 143 139 148 159 153 164 188 205 208 180 203 262 173 155 170 188 186 174 171 177 183 185 187 193 195 188 185 193 199 202 205 209 214 212 205 210 219 221 220 216 208 202 201 201 202 207 208 208 205 199 202 212 214 213 214 216 219 217 221 232 234 231 227 223 230 236 230 225 227 227 227 228 236 246 247 238 234 235
240 249 211 197 224 238 247 283 290 252 244 242 254 255 263 315 138 170 172 156 148 144 143 155 179 216 235 159 102 85 225 24 133 157 167 168 173 178 180 185 187 187 193 193 186 186 195 203 209 212 214 215 214 207 207 215 219 217 217 212 206 204 201 200 204 206 208 207 200 202 212 216 216 214 214 216 217 219 227 232 230 223 220 229 238 234 231 235 236 236 234 234 241 246 247 245 239
237 256 250 225 229 234 221 215 241 257 249 232 224 211 238 12 1 230 159 136 139 129 148 187 117 66 9 16 108 89 197 222 131 147 157 167 177 181 178 181 185 187 191 191 186 185 190 199 207 211 212 212 209 202 200 208 215 215 217 217 212 209 206 205 205 205 207 209 206 207 211 213 215 216 214 216 217 216 220 223 221 219 218 222 228 229 229 234 239 241 239 236 235 241 251 255 252
220 238 245 249 251 255 248 199 206 255 269 258 256 210 110 74 38 311 80 107 142 143 180 195 104 111 194 254 116 107 181 260 129 149 162 165 167 165 165 174 180 183 186 187 185 185 187 193 199 201 203 204 203 198 195 200 205 210 215 217 215 211 208 207 206 207 209 209 209 210 211 212 214 216 217 218 219 218 217 218 219 219 219 220 223 225 225 228 234 238 239 237 233 235 245 254 256
200 209 223 233 233 239 247 211 201 233 256 239 208 203 147 133 164 149 95 115 149 121 118 96 96 122 167 166 97 115 172 181 137 162 172 164 161 157 158 169 175 179 185 187 187 189 192 194 197 200 202 203 203 200 198 199 199 203 212 214 210 207 207 209 208 208 207 206 209 212 211 211 214 216 217 218 220 221 220 219 222 223 222 222 224 228 229 228 230 236 238 237 232 229 233 241 246